Regional Weather Roundup
Issued by NWS

Home | Current Version | Previous Version | Graphics & Text | Print | Product List | Glossary On
Versions: 1 2 3 4 5 6 7 8 9 10 11 12 13 14 15 16 17 18 19 20 21 22 23 24 25 26 27 28 29 30 31 32 33 34 35 36 37 38 39 40 41 42 43 44 45 46 47 48 49 50
000
ASUS43 KOAX 011610
RWRNE

WEATHER ROUNDUP FOR NEBRASKA
NATIONAL WEATHER SERVICE OMAHA NE
1100 AM CDT SAT AUG 01 2015

NOTES: SATELLITE DATA IS BEING USED TO AUGMENT CLOUD COVER ABOVE
       12000 FEET.
       "FAIR" INDICATES FEW OR NO CLOUDS BELOW 12,000 FEET WITH NO
       SIGNIFICANT WEATHER AND/OR OBSTRUCTIONS TO VISIBILITY.

  * THESE STATIONS DO NOT REPORT WEATHER SUCH AS RAIN...SNOW OR FOG.

NEZ001>004-019>022-054>056-011700-
NEBRASKA PANHANDLE

CITY           SKY/WX    TMP DP  RH WIND       PRES   REMARKS
SCOTTSBLUFF    SUNNY     80  59  48 VRB3      30.09S
ALLIANCE       SUNNY     84  59  42 SW9       30.08S
CHADRON        SUNNY     81  56  42 S5        30.04S
KIMBALL        SUNNY     83  55  37 S14       30.13F
SIDNEY         SUNNY     84  59  42 SW20      30.12F
$$

NEZ057>060-069>072-079>082-011700-
SOUTHWEST NEBRASKA

CITY           SKY/WX    TMP DP  RH WIND       PRES   REMARKS
NORTH PLATTE   SUNNY     74  61  63 E20G26    30.12F
IMPERIAL       SUNNY     84  63  49 E13       30.11R
LEXINGTON      SUNNY     78  58  48 E16G22    30.12F
MCCOOK         SUNNY     78  61  55 E18G24    30.12F
OGALLALA       SUNNY     79  65  62 E15       30.11R
$$

NEZ005>010-023>029-035>040-094-011700-
NORTH CENTRAL NEBRASKA

CITY           SKY/WX    TMP DP  RH WIND       PRES   REMARKS
VALENTINE      LGT RAIN  63  60  90 S20G28    30.13F
AINSWORTH      LGT RAIN  60  59  97 S13       30.17F
BROKEN BOW     SUNNY     78  57  48 SE13G24   30.12F
O`NEILL        CLOUDY    72  61  66 W12       30.12R
ORD            PTSUNNY   73  60  63 SE5       30.09F
THEDFORD       MOSUNNY   78  59  50 SE21G29   30.12F
$$

NEZ041-046>049-061>064-073>077-083>087-011700-
SOUTH CENTRAL NEBRASKA

CITY           SKY/WX    TMP DP  RH WIND       PRES   REMARKS
GRAND ISLAND   PTSUNNY   71  60  68 CALM      30.08F
AURORA         PTSUNNY   69  63  81 E5        30.08S
HASTINGS       MOSUNNY   76  60  57 E9        30.09F
HEBRON         MOSUNNY   78  58  49 NE8       30.09F
HOLDREGE       SUNNY     77  58  52 E14       30.11F
KEARNEY *      SUNNY     77  59  53 E14       30.11F
YORK           CLOUDY    72  59  64 S12       30.04F
$$

NEZ011>018-030>034-042>045-011700-
NORTHEAST NEBRASKA

CITY           SKY/WX    TMP DP  RH WIND       PRES   REMARKS
NORFOLK        CLOUDY    75  62  64 SW6       30.05F
ALBION         CLOUDY    70  61  73 SW6       30.08F
BLAIR          CLOUDY    74  65  74 NW3       30.04F
COLUMBUS *     CLOUDY    75  59  57 S3        30.04F
FREMONT        CLOUDY    78  63  59 CALM      30.04F
TEKAMAH        PTSUNNY   78  67  68 VRB5      30.03F
WAYNE          CLOUDY    76  64  65 SW10G16   30.04F
$$

NEZ050>053-065>068-078-088>093-011700-
SOUTHEAST NEBRASKA

CITY           SKY/WX    TMP DP  RH WIND       PRES   REMARKS
LINCOLN        CLOUDY    74  60  61 E7        30.03F
OMAHA EPPLEY   CLOUDY    77  65  66 SW6       30.02F
BEATRICE       MOSUNNY   77  62  59 CALM      30.08F
FALLS CITY     MOSUNNY   82  72  71 NW12      30.06R
NEBRASKA CITY  CLOUDY    74  64  70 NE9       30.06F
PLATTSMOUTH    CLOUDY    72  64  75 CALM      30.04F
$$

NEZ044-045-051>053-067-011700-
OMAHA AREA

CITY           SKY/WX    TMP DP  RH WIND       PRES   REMARKS
OMAHA EPPLEY   CLOUDY    77  65  66 SW6       30.02F
BLAIR          CLOUDY    74  65  74 NW3       30.04F
FREMONT        CLOUDY    78  63  59 CALM      30.04F
MILLARD        CLOUDY    74  65  74 CALM      30.03F
OFFUTT AFB     CLOUDY    72  65  77 VRB3      30.03F
PLATTSMOUTH    CLOUDY    72  64  75 CALM      30.04F
WAHOO          FAIR      77  63  62 SW6       30.02F
$$



USA.gov is the U.S. government's official web portal to all federal, state and local government web resources and services.